Location: *
(45.1333°S, 169.6333°W)
Time: 21:19:41
(UTC+00:00)

GEOS 3 Rocket - Pass Details

Date: 26 May 2022
Orbit: 790 x 828 km, 115.0° (Epoch: 01 July)

Event Time Altitude Azimuth Distance (km) Brightness Sun altitude
Exits shadow 06:10:39 60° 68° (ENE) 937 3.6 -24.3°
Maximum altitude 06:10:52 61° 56° (NE) 931 3.6 -24.4°
Drops below altitude 10° 06:16:00 10° 335° (NNW) 2,392 6.4 -25.3°
Sets 06:18:18 0° 331° (NNW) 3,311 7.2 -25.7°
